OBJECT F, 64881

Orbit data source: Space-Track

You're viewing an Uncataloged Satellite

Recently launched and/or uncataloged satellites may have evolving metadata. Metadata may include but not limited to: Owner, Maufacturer, Bus, Motor, and Mission.

OBJECT F, 64881 is a satellite in SSO that was launched on Fri, 25 Jul 2025 UTC via a SOYUZ-2-1B launch vehicle from the Vostochny Cosmodrome (VOSTO). Unknown objects in Earth's orbit typically refer to objects detected orbiting the Earth but have not yet been identified or cataloged. These objects could be anything from previously untracked satellites, spent rocket stages, debris from satellite collisions, or even natural meteoroids temporarily captured by Earth's gravity.

Loading next visibility...
Identifier
64881, 2025-155F
Orbit
SSO
Country
Flag of TBDTBD
Related business
Flag of RUGeoscan (RU)
Manufacturer
SPUT/GEOSK
Mission
Operational spacecraft
Bus & Motor
CUBESAT 3U, Unknown motor
Mass
3 kg wet, 3 kg dry
Launch date (UTC)
2025-07-25 (1 month ago)
Launch vehicle
SOYUZ-2-1B
Launch site
Vostochny Cosmodrome (VOSTO)
Object type
Unknown
Shape & HBR
Unknown
Radar Cross Section
Small (<0.1 m²)

Expand to show TLE details & history
Last TLE update: 8 hours ago

TLE from 8 hours ago
0 OBJECT F
1 64881U 25155F   25242.92369153  .00018532  00000-0  79790-3 0  9992
2 64881  97.4178 207.6816 0011154 117.6145 242.6226 15.22598351 36488
Epoch: 2025-08-30T22:10Z
TLE epoch observation values (Epoch: 2025-08-30T22:10:06.948Z)
Latitude
0.00006°
Longitude
-104.19838°
Altitude
504.635 km
Speed
7.61 km/s
True Right ascension
13h 50m 43s
True Declination
0° 00' 00"
Sunlit
Object was in daylight at epoch
Visualization orbit readout
Latitude
Unknown
Longitude
Unknown
Altitude
Unknown
Speed
Unknown
Apparent Right ascension
Unknown
Apparent Declination
Unknown
Sunlit
N/A
Visualization observer readout
Local Sidereal Time
21:42:14
Azimuth
Unknown
Elevation
Unknown
Doppler factor
Unknown
Orbital elements
Apogee altitude
502.636 km
Perigee altitude
487.303 km
Semi-major axis
6,873.106 km
Eccentricity
0.00112
Inclination
97.4178°
RAAN
207.6816°
Arg. of periapsis
117.6145°
True anomaly
242.50917°
Mean anomaly
242.6226°
Eccentric anomaly
242.56588°
Mean motion
3.80902 °/min
Orbital period
94.51 mins
BSTAR
0.0007979
Loading maneuver chart data...
Computing Atmospheric mass density...
Loading historical data...
Loading historical data...
Loading historical data...
Loading historical data...
Loading historical data...
Loading historical data...
Loading historical data...

Documentation

Showing up to 5 results
|